Year,Month,Day,Hour,Minute,Value (Times are PST for temperature in C)
2019,10,22,00,00,11.50
2019,10,22,00,01,11.60
2019,10,22,00,02,11.60
2019,10,22,00,03,11.60
2019,10,22,00,04,11.60
2019,10,22,00,05,11.70
2019,10,22,00,06,11.80
2019,10,22,00,07,11.90
2019,10,22,00,08,11.90
2019,10,22,00,09,11.90
2019,10,22,00,10,11.90
2019,10,22,00,11,11.80
2019,10,22,00,12,11.80
2019,10,22,00,13,11.80
2019,10,22,00,14,11.70
2019,10,22,00,15,11.70
2019,10,22,00,16,11.80
2019,10,22,00,17,11.90
2019,10,22,00,18,12.00
2019,10,22,00,19,12.00
2019,10,22,00,20,12.20
2019,10,22,00,21,12.50
2019,10,22,00,22,12.70
2019,10,22,00,23,12.70
2019,10,22,00,24,12.80
2019,10,22,00,25,12.90
2019,10,22,00,26,13.10
2019,10,22,00,27,13.10
2019,10,22,00,28,13.00
2019,10,22,00,29,13.00
2019,10,22,00,30,13.00
2019,10,22,00,31,12.90
2019,10,22,00,32,12.90
2019,10,22,00,33,12.90
2019,10,22,00,34,12.90
2019,10,22,00,35,12.90
2019,10,22,00,36,12.80
2019,10,22,00,37,12.80
2019,10,22,00,38,12.80
2019,10,22,00,39,12.80
2019,10,22,00,40,12.80
2019,10,22,00,41,12.80
2019,10,22,00,42,12.80
2019,10,22,00,43,12.70
2019,10,22,00,44,12.70
2019,10,22,00,45,12.70
2019,10,22,00,46,12.80
2019,10,22,00,47,12.80
2019,10,22,00,48,12.70
2019,10,22,00,49,12.70
2019,10,22,00,50,12.70
2019,10,22,00,51,12.70
2019,10,22,00,52,12.70
2019,10,22,00,53,12.70
2019,10,22,00,54,12.70
2019,10,22,00,55,12.60
2019,10,22,00,56,12.60
2019,10,22,00,57,12.70
2019,10,22,00,58,12.70
2019,10,22,00,59,12.70
2019,10,22,01,00,12.70
2019,10,22,01,01,12.70
2019,10,22,01,02,12.70
2019,10,22,01,03,12.80
2019,10,22,01,04,12.80
2019,10,22,01,05,12.80
2019,10,22,01,06,12.70
2019,10,22,01,07,12.70
2019,10,22,01,08,12.70
2019,10,22,01,09,12.60
2019,10,22,01,10,12.60
2019,10,22,01,11,12.60
2019,10,22,01,12,12.60
2019,10,22,01,13,12.60
2019,10,22,01,14,12.60
2019,10,22,01,15,12.70
2019,10,22,01,16,12.60
2019,10,22,01,17,12.60
2019,10,22,01,18,12.60
2019,10,22,01,19,12.60
2019,10,22,01,20,12.60
2019,10,22,01,21,12.60
2019,10,22,01,22,12.60
2019,10,22,01,23,12.60
2019,10,22,01,24,12.70
2019,10,22,01,25,12.70
2019,10,22,01,26,12.60
2019,10,22,01,27,12.60
2019,10,22,01,28,12.60
2019,10,22,01,29,12.60
2019,10,22,01,30,12.60
2019,10,22,01,31,12.60
2019,10,22,01,32,12.60
2019,10,22,01,33,12.60
2019,10,22,01,34,12.50
2019,10,22,01,35,12.50
2019,10,22,01,36,12.50
2019,10,22,01,37,12.40
2019,10,22,01,38,12.40
2019,10,22,01,39,12.30
2019,10,22,01,40,12.30
2019,10,22,01,41,12.30
2019,10,22,01,42,12.20
2019,10,22,01,43,12.20
2019,10,22,01,44,12.20
2019,10,22,01,45,12.20
2019,10,22,01,46,12.10
2019,10,22,01,47,12.20
2019,10,22,01,48,12.30
2019,10,22,01,49,12.40
2019,10,22,01,50,12.40
2019,10,22,01,51,12.40
2019,10,22,01,52,12.30
2019,10,22,01,53,12.30
2019,10,22,01,54,12.30
2019,10,22,01,55,12.30
2019,10,22,01,56,12.30
2019,10,22,01,57,12.30
2019,10,22,01,58,12.30
2019,10,22,01,59,12.30
2019,10,22,02,00,12.30
2019,10,22,02,01,12.20
2019,10,22,02,02,12.20
2019,10,22,02,03,12.20
2019,10,22,02,04,12.20
2019,10,22,02,05,12.20
2019,10,22,02,06,12.20
2019,10,22,02,07,12.20
2019,10,22,02,08,12.10
2019,10,22,02,09,12.10
2019,10,22,02,10,12.00
2019,10,22,02,11,12.00
2019,10,22,02,12,12.00
2019,10,22,02,13,11.90
2019,10,22,02,14,11.90
2019,10,22,02,15,12.00
2019,10,22,02,16,12.00
2019,10,22,02,17,11.90
2019,10,22,02,18,11.90
2019,10,22,02,19,11.90
2019,10,22,02,20,11.90
2019,10,22,02,21,11.90
2019,10,22,02,22,11.90
2019,10,22,02,23,11.90
2019,10,22,02,24,11.80
2019,10,22,02,25,11.90
2019,10,22,02,26,11.90
2019,10,22,02,27,11.90
2019,10,22,02,28,11.90
2019,10,22,02,29,11.90
2019,10,22,02,30,11.90
2019,10,22,02,31,12.00
2019,10,22,02,32,12.00
2019,10,22,02,33,12.10
2019,10,22,02,34,12.10
2019,10,22,02,35,12.20
2019,10,22,02,36,12.20
2019,10,22,02,37,12.20
2019,10,22,02,38,12.10
2019,10,22,02,39,12.10
2019,10,22,02,40,12.10
2019,10,22,02,41,12.10
2019,10,22,02,42,12.10
2019,10,22,02,43,12.10
2019,10,22,02,44,12.10
2019,10,22,02,45,12.10
2019,10,22,02,46,12.10
2019,10,22,02,47,12.10
2019,10,22,02,48,12.10
2019,10,22,02,49,12.10
2019,10,22,02,50,12.10
2019,10,22,02,51,12.10
2019,10,22,02,52,12.10
2019,10,22,02,53,12.00
2019,10,22,02,54,12.10
2019,10,22,02,55,12.10
2019,10,22,02,56,12.10
2019,10,22,02,57,12.20
2019,10,22,02,58,12.20
2019,10,22,02,59,12.20
2019,10,22,03,00,12.20
2019,10,22,03,01,12.20
2019,10,22,03,02,12.20
2019,10,22,03,03,12.20
2019,10,22,03,04,12.10
2019,10,22,03,05,12.10
2019,10,22,03,06,12.10
2019,10,22,03,07,12.10
2019,10,22,03,08,12.10
2019,10,22,03,09,12.10
2019,10,22,03,10,12.10
2019,10,22,03,11,12.10
2019,10,22,03,12,12.10
2019,10,22,03,13,12.10
2019,10,22,03,14,12.10
2019,10,22,03,15,12.20
2019,10,22,03,16,12.20
2019,10,22,03,17,12.20
2019,10,22,03,18,12.20
2019,10,22,03,19,12.20
2019,10,22,03,20,12.20
2019,10,22,03,21,12.20
2019,10,22,03,22,12.20
2019,10,22,03,23,12.20
2019,10,22,03,24,12.20
2019,10,22,03,25,12.20
2019,10,22,03,26,12.20
2019,10,22,03,27,12.20
2019,10,22,03,28,12.20
2019,10,22,03,29,12.20
2019,10,22,03,30,12.20
2019,10,22,03,31,12.20
2019,10,22,03,32,12.30
2019,10,22,03,33,12.30
2019,10,22,03,34,12.30
2019,10,22,03,35,12.30
2019,10,22,03,36,12.30
2019,10,22,03,37,12.30
2019,10,22,03,38,12.20
2019,10,22,03,39,12.20
2019,10,22,03,40,12.20
2019,10,22,03,41,12.20
2019,10,22,03,42,12.20
2019,10,22,03,43,12.20
2019,10,22,03,44,12.20
2019,10,22,03,45,12.10
2019,10,22,03,46,12.10
2019,10,22,03,47,12.10
2019,10,22,03,48,12.10
2019,10,22,03,49,12.10
2019,10,22,03,50,12.10
2019,10,22,03,51,12.10
2019,10,22,03,52,12.20
2019,10,22,03,53,12.20
2019,10,22,03,54,12.10
2019,10,22,03,55,12.10
2019,10,22,03,56,12.00
2019,10,22,03,57,12.00
2019,10,22,03,58,11.90
2019,10,22,03,59,12.00
2019,10,22,04,00,12.00
2019,10,22,04,01,12.00
2019,10,22,04,02,12.00
2019,10,22,04,03,12.00
2019,10,22,04,04,12.10
2019,10,22,04,05,12.10
2019,10,22,04,06,12.10
2019,10,22,04,07,12.10
2019,10,22,04,08,12.10
2019,10,22,04,09,12.10
2019,10,22,04,10,12.10
2019,10,22,04,11,12.10
2019,10,22,04,12,12.10
2019,10,22,04,13,12.10
2019,10,22,04,14,12.10
2019,10,22,04,15,12.10
2019,10,22,04,16,12.10
2019,10,22,04,17,12.10
2019,10,22,04,18,12.10
2019,10,22,04,19,12.10
2019,10,22,04,20,12.10
2019,10,22,04,21,12.20
2019,10,22,04,22,12.20
2019,10,22,04,23,12.20
2019,10,22,04,24,12.20
2019,10,22,04,25,12.20
2019,10,22,04,26,12.20
2019,10,22,04,27,12.20
2019,10,22,04,28,12.20
2019,10,22,04,29,12.20
2019,10,22,04,30,12.20
2019,10,22,04,31,12.20
2019,10,22,04,32,12.20
2019,10,22,04,33,12.20
2019,10,22,04,34,12.20
2019,10,22,04,35,12.20
2019,10,22,04,36,12.20
2019,10,22,04,37,12.30
2019,10,22,04,38,12.30
2019,10,22,04,39,12.30
2019,10,22,04,40,12.30
2019,10,22,04,41,12.30
2019,10,22,04,42,12.30
2019,10,22,04,43,12.30
2019,10,22,04,44,12.30
2019,10,22,04,45,12.30
2019,10,22,04,46,12.30
2019,10,22,04,47,12.20
2019,10,22,04,48,12.20
2019,10,22,04,49,12.20
2019,10,22,04,50,12.30
2019,10,22,04,51,12.30
2019,10,22,04,52,12.30
2019,10,22,04,53,12.30
2019,10,22,04,54,12.30
2019,10,22,04,55,12.30
2019,10,22,04,56,12.30
2019,10,22,04,57,12.30
2019,10,22,04,58,12.30
2019,10,22,04,59,12.30
2019,10,22,05,00,12.30
2019,10,22,05,01,12.30
2019,10,22,05,02,12.30
2019,10,22,05,03,12.30
2019,10,22,05,04,12.20
2019,10,22,06,06,12.00
2019,10,22,06,07,12.10
2019,10,22,06,08,12.10
2019,10,22,06,09,12.10
2019,10,22,06,10,12.10
2019,10,22,06,11,12.10
2019,10,22,06,12,12.10
2019,10,22,06,13,12.20
2019,10,22,06,14,12.20
2019,10,22,06,15,12.20
2019,10,22,06,16,12.20
2019,10,22,06,17,12.20
2019,10,22,06,18,12.10
2019,10,22,06,19,12.10
2019,10,22,06,20,12.10
2019,10,22,06,21,12.20
2019,10,22,06,22,12.20
2019,10,22,06,23,12.20
2019,10,22,06,24,12.10
2019,10,22,06,25,12.10
2019,10,22,06,26,12.10
2019,10,22,06,27,12.10
2019,10,22,06,28,12.10
2019,10,22,06,29,12.20
2019,10,22,06,30,12.20
2019,10,22,06,31,12.10
2019,10,22,06,32,12.20
2019,10,22,06,33,12.10
2019,10,22,06,34,12.10
2019,10,22,06,35,12.10
2019,10,22,06,36,12.10
2019,10,22,06,37,12.10
2019,10,22,06,38,12.10
2019,10,22,06,39,12.10
2019,10,22,06,40,12.10
2019,10,22,06,41,12.10
2019,10,22,06,42,12.00
2019,10,22,06,43,12.00
2019,10,22,06,44,12.00
2019,10,22,06,45,12.00
2019,10,22,06,46,12.00
2019,10,22,06,47,12.00
2019,10,22,06,48,12.10
2019,10,22,06,49,12.10
2019,10,22,06,50,12.10
2019,10,22,06,51,12.10
2019,10,22,06,52,12.10
2019,10,22,06,53,12.10
2019,10,22,06,54,12.10
2019,10,22,06,55,12.10
2019,10,22,06,56,12.10
2019,10,22,06,57,12.10
2019,10,22,06,58,12.10
2019,10,22,06,59,12.10
2019,10,22,07,00,12.10
2019,10,22,07,01,12.10
2019,10,22,07,02,12.10
2019,10,22,07,03,12.10
2019,10,22,07,04,12.00
2019,10,22,07,05,12.00
2019,10,22,07,06,12.00
2019,10,22,07,07,12.00
2019,10,22,07,08,12.00
2019,10,22,07,09,12.00
2019,10,22,07,10,12.00
2019,10,22,07,11,12.00
2019,10,22,07,12,12.00
2019,10,22,07,13,12.00
2019,10,22,07,14,12.00
2019,10,22,07,15,12.00
2019,10,22,07,16,11.90
2019,10,22,07,17,11.90
2019,10,22,07,18,11.90
2019,10,22,07,19,11.90
2019,10,22,07,20,12.00
2019,10,22,07,21,12.00
2019,10,22,07,22,11.90
2019,10,22,07,23,12.00
2019,10,22,07,24,12.00
2019,10,22,07,25,12.00
2019,10,22,07,26,12.00
2019,10,22,07,27,12.00
2019,10,22,07,28,12.10
2019,10,22,07,29,12.10
2019,10,22,07,30,12.10
2019,10,22,07,31,12.10
2019,10,22,07,32,12.10
2019,10,22,07,33,12.00
2019,10,22,07,34,12.00
2019,10,22,07,35,12.00
2019,10,22,07,36,11.90
2019,10,22,07,37,11.90
2019,10,22,07,38,12.00
2019,10,22,07,39,12.00
2019,10,22,07,40,12.00
2019,10,22,07,41,12.00
2019,10,22,07,42,12.00
2019,10,22,07,43,12.00
2019,10,22,07,44,12.00
2019,10,22,07,45,12.00
2019,10,22,07,46,11.90
2019,10,22,07,47,11.90
2019,10,22,07,48,11.90
2019,10,22,07,49,11.90
2019,10,22,07,50,11.90
2019,10,22,07,51,11.90
2019,10,22,07,52,11.90
2019,10,22,07,53,11.90
2019,10,22,07,54,11.90
2019,10,22,07,55,11.90
2019,10,22,07,56,11.90
2019,10,22,07,57,11.90
2019,10,22,07,58,11.90
2019,10,22,07,59,11.90
2019,10,22,08,00,11.90
2019,10,22,08,01,11.90
2019,10,22,08,02,11.90
2019,10,22,08,03,11.90
2019,10,22,08,04,11.90
2019,10,22,08,05,11.90
2019,10,22,08,06,11.90
2019,10,22,08,07,11.90
2019,10,22,08,08,11.90
2019,10,22,08,09,11.90
2019,10,22,08,10,11.90
2019,10,22,08,11,11.90
2019,10,22,08,12,11.90
2019,10,22,08,13,11.90
2019,10,22,08,14,11.90
2019,10,22,08,15,11.90
2019,10,22,08,16,11.80
2019,10,22,08,17,11.80
2019,10,22,08,18,11.80
2019,10,22,08,19,11.80
2019,10,22,08,20,11.80
2019,10,22,08,21,11.80
2019,10,22,08,22,11.80
2019,10,22,08,23,11.80
2019,10,22,08,24,11.80
2019,10,22,08,25,11.80
2019,10,22,08,26,11.80
2019,10,22,08,27,11.80
2019,10,22,08,28,11.80
2019,10,22,08,29,11.80
2019,10,22,08,30,11.80
2019,10,22,08,31,11.80
2019,10,22,08,32,11.80
2019,10,22,08,33,11.80
2019,10,22,08,34,11.80
2019,10,22,08,35,11.80
2019,10,22,08,36,11.80
2019,10,22,08,37,11.80
2019,10,22,08,38,11.70
2019,10,22,08,39,11.70
2019,10,22,08,40,11.70
2019,10,22,08,41,11.70
2019,10,22,08,42,11.70
2019,10,22,08,43,11.70
2019,10,22,08,44,11.80
2019,10,22,08,45,11.80
2019,10,22,08,46,11.80
2019,10,22,08,47,11.70
2019,10,22,08,48,11.70
2019,10,22,08,49,11.70
2019,10,22,08,50,11.70
2019,10,22,08,51,11.70
2019,10,22,08,52,11.70
2019,10,22,08,53,11.70
2019,10,22,08,54,11.70
2019,10,22,08,55,11.70
2019,10,22,08,56,11.70
2019,10,22,08,57,11.70
2019,10,22,08,58,11.70
2019,10,22,08,59,11.70
2019,10,22,09,00,11.70
2019,10,22,09,01,11.70
2019,10,22,09,02,11.70
2019,10,22,09,03,11.70
2019,10,22,09,04,11.70
2019,10,22,09,05,11.70
2019,10,22,09,06,11.70
2019,10,22,09,07,11.70
2019,10,22,09,08,11.70
2019,10,22,09,09,11.70
2019,10,22,09,10,11.70
2019,10,22,09,11,11.70
2019,10,22,09,12,11.70
2019,10,22,09,13,11.80
2019,10,22,09,14,11.80
2019,10,22,09,15,11.80
2019,10,22,09,16,11.80
2019,10,22,09,17,11.80
2019,10,22,09,18,11.80
2019,10,22,09,19,11.80
2019,10,22,09,20,11.80
2019,10,22,09,21,11.90
2019,10,22,09,22,11.90
2019,10,22,09,23,11.90
2019,10,22,09,24,11.90
2019,10,22,09,25,11.90
2019,10,22,09,26,11.90
2019,10,22,09,27,12.00
2019,10,22,09,28,12.00
2019,10,22,09,29,12.00
2019,10,22,09,30,12.00
2019,10,22,09,31,12.00
2019,10,22,09,32,11.90
2019,10,22,09,33,11.90
2019,10,22,09,34,11.90
2019,10,22,09,35,11.90
2019,10,22,09,36,11.90
2019,10,22,09,37,11.90
2019,10,22,09,38,11.90
2019,10,22,09,39,11.90
2019,10,22,09,40,11.90
2019,10,22,09,41,11.90
2019,10,22,09,42,11.90
2019,10,22,09,43,11.90
2019,10,22,09,44,11.80
2019,10,22,09,45,11.80
2019,10,22,09,46,11.80
2019,10,22,09,47,11.80
2019,10,22,09,48,11.80
2019,10,22,09,49,11.80
2019,10,22,09,50,11.80
2019,10,22,09,51,11.80
2019,10,22,09,52,11.90
2019,10,22,09,53,11.80
2019,10,22,09,54,11.80
2019,10,22,09,55,11.80
2019,10,22,09,56,11.90
2019,10,22,09,57,11.90
2019,10,22,09,58,11.90
2019,10,22,09,59,11.90
2019,10,22,10,00,11.90
2019,10,22,10,01,11.90
2019,10,22,10,02,11.90
2019,10,22,10,03,11.80
2019,10,22,10,04,11.80
2019,10,22,10,05,11.80
2019,10,22,10,06,11.80
2019,10,22,10,07,11.80
2019,10,22,10,08,11.70
2019,10,22,10,09,11.70
2019,10,22,10,10,11.70
2019,10,22,10,11,11.70
2019,10,22,10,12,11.70
2019,10,22,10,13,11.70
2019,10,22,10,14,11.70
2019,10,22,10,15,11.70
2019,10,22,10,16,11.70
2019,10,22,10,17,11.70
2019,10,22,10,18,11.70
2019,10,22,10,19,11.70
2019,10,22,10,20,11.70
2019,10,22,10,21,11.70
2019,10,22,10,22,11.70
2019,10,22,10,23,11.70
2019,10,22,10,24,11.70
2019,10,22,10,25,11.70
2019,10,22,10,26,11.70
2019,10,22,10,27,11.70
2019,10,22,10,28,11.70
2019,10,22,10,29,11.70
2019,10,22,10,30,11.70
2019,10,22,10,31,11.70
2019,10,22,10,32,11.70
2019,10,22,10,33,11.70
2019,10,22,10,34,11.80
2019,10,22,10,35,11.80
2019,10,22,10,36,11.80
2019,10,22,10,37,11.80
2019,10,22,10,38,11.80
2019,10,22,10,39,11.80
2019,10,22,10,40,11.80
2019,10,22,10,41,11.80
2019,10,22,10,42,11.80
2019,10,22,10,43,11.80
2019,10,22,10,44,11.80
2019,10,22,10,45,11.80
2019,10,22,10,46,11.80
2019,10,22,10,47,11.80
2019,10,22,10,48,11.80
2019,10,22,10,49,11.80
2019,10,22,10,50,11.80
2019,10,22,10,51,11.80
2019,10,22,10,52,11.80
2019,10,22,10,53,11.80
2019,10,22,10,54,11.80
2019,10,22,10,55,11.80
2019,10,22,10,56,11.70
2019,10,22,10,57,11.70
2019,10,22,10,58,11.80
2019,10,22,10,59,11.70
2019,10,22,11,00,11.70
2019,10,22,11,01,11.70
2019,10,22,11,02,11.70
2019,10,22,11,03,11.70
2019,10,22,11,04,11.70
2019,10,22,11,05,11.70
2019,10,22,11,06,11.70
2019,10,22,11,07,11.70
2019,10,22,11,08,11.60
2019,10,22,11,09,11.60
2019,10,22,11,10,11.60
2019,10,22,11,11,11.60
2019,10,22,11,12,11.60
2019,10,22,11,13,11.60
2019,10,22,11,14,11.60
2019,10,22,11,15,11.60
2019,10,22,11,16,11.70
2019,10,22,11,17,11.70
2019,10,22,11,18,11.70
2019,10,22,11,19,11.70
2019,10,22,11,20,11.80
2019,10,22,11,21,11.80
2019,10,22,11,22,11.80
2019,10,22,11,23,11.80
2019,10,22,11,24,11.80
2019,10,22,11,25,11.80
2019,10,22,11,26,11.90
2019,10,22,11,27,11.90
2019,10,22,11,28,11.80
2019,10,22,11,29,11.80
2019,10,22,11,30,11.70
2019,10,22,11,31,11.70
2019,10,22,11,32,11.70
2019,10,22,11,33,11.70
2019,10,22,11,34,11.80
2019,10,22,11,35,11.80
2019,10,22,11,36,11.70
2019,10,22,11,37,11.80
2019,10,22,11,38,11.80
2019,10,22,11,39,11.80
2019,10,22,11,40,11.80
2019,10,22,11,41,11.80
2019,10,22,11,42,11.80
2019,10,22,11,43,11.80
2019,10,22,11,44,11.80
2019,10,22,11,45,11.80
2019,10,22,11,46,11.80
2019,10,22,11,47,11.80
2019,10,22,11,48,11.80
2019,10,22,11,49,11.80
2019,10,22,11,50,11.80
2019,10,22,11,51,11.80
2019,10,22,11,52,11.70
2019,10,22,11,53,11.70
2019,10,22,11,54,11.70
2019,10,22,11,55,11.70
2019,10,22,11,56,11.70
2019,10,22,11,57,11.70
2019,10,22,11,58,11.80
2019,10,22,11,59,11.80
2019,10,22,12,00,11.80
2019,10,22,12,01,11.80
2019,10,22,12,02,11.90
2019,10,22,12,03,11.90
2019,10,22,12,04,12.00
2019,10,22,12,05,12.10
2019,10,22,12,06,12.10
2019,10,22,12,07,12.20
2019,10,22,12,08,12.20
2019,10,22,12,09,12.20
2019,10,22,12,10,12.20
2019,10,22,12,11,12.20
2019,10,22,12,12,12.10
2019,10,22,12,13,12.10
2019,10,22,12,14,12.10
2019,10,22,12,15,12.10
2019,10,22,12,16,12.10
2019,10,22,12,17,12.10
2019,10,22,12,18,12.10
2019,10,22,12,19,12.10
2019,10,22,12,20,12.10
2019,10,22,12,21,12.10
2019,10,22,12,22,12.10
2019,10,22,12,23,12.10
2019,10,22,12,24,12.10
2019,10,22,12,25,12.10
2019,10,22,12,26,12.10
2019,10,22,12,27,12.10
2019,10,22,12,28,12.20
2019,10,22,12,29,12.20
2019,10,22,12,30,12.30
2019,10,22,12,31,12.30
2019,10,22,12,32,12.20
2019,10,22,12,33,12.30
2019,10,22,12,34,12.30
2019,10,22,12,35,12.20
2019,10,22,12,36,12.20
2019,10,22,12,37,12.10
2019,10,22,12,38,12.20
2019,10,22,12,39,12.20
2019,10,22,12,40,12.10
2019,10,22,12,41,12.10
2019,10,22,12,42,12.10
2019,10,22,12,43,12.10
2019,10,22,12,44,12.10
2019,10,22,12,45,12.10
2019,10,22,12,46,12.10
2019,10,22,12,47,12.10
2019,10,22,12,48,12.10
2019,10,22,12,49,12.20
2019,10,22,12,50,12.20
2019,10,22,12,51,12.20
2019,10,22,12,52,12.20
2019,10,22,12,53,12.20
2019,10,22,12,54,12.20
2019,10,22,12,55,12.20
2019,10,22,12,56,12.30
2019,10,22,12,57,12.20
2019,10,22,12,58,12.30
2019,10,22,12,59,12.30
2019,10,22,13,00,12.30
2019,10,22,13,01,12.30
2019,10,22,13,02,12.30
2019,10,22,13,03,12.30
2019,10,22,13,04,12.30
2019,10,22,13,05,12.30
2019,10,22,13,06,12.30
2019,10,22,13,07,12.30
2019,10,22,13,08,12.30
2019,10,22,13,09,12.30
2019,10,22,13,10,12.30
2019,10,22,13,11,12.20
2019,10,22,13,12,12.20
2019,10,22,13,13,12.20
2019,10,22,13,14,12.30
2019,10,22,13,15,12.30
2019,10,22,13,16,12.30
2019,10,22,13,17,12.20
2019,10,22,13,18,12.30
2019,10,22,13,19,12.30
2019,10,22,13,20,12.30
2019,10,22,13,21,12.30
2019,10,22,13,22,12.30
2019,10,22,13,23,12.30
2019,10,22,13,24,12.30
2019,10,22,13,25,12.20
2019,10,22,13,26,12.30
2019,10,22,13,27,12.30
2019,10,22,13,28,12.30
2019,10,22,13,29,12.30
2019,10,22,13,30,12.30
2019,10,22,13,31,12.30
2019,10,22,13,32,12.30
2019,10,22,13,33,12.30
2019,10,22,13,34,12.40
2019,10,22,13,35,12.40
2019,10,22,13,36,12.40
2019,10,22,13,37,12.50
2019,10,22,13,38,12.50
2019,10,22,13,39,12.50
2019,10,22,13,40,12.50
2019,10,22,13,41,12.50
2019,10,22,13,42,12.50
2019,10,22,13,43,12.60
2019,10,22,13,44,12.60
2019,10,22,13,45,12.60
2019,10,22,13,46,12.60
2019,10,22,13,47,12.60
2019,10,22,13,48,12.60
2019,10,22,13,49,12.50
2019,10,22,13,50,12.50
2019,10,22,13,51,12.50
2019,10,22,13,52,12.50
2019,10,22,13,53,12.50
2019,10,22,13,54,12.50
2019,10,22,13,55,12.50
2019,10,22,13,56,12.50
2019,10,22,13,57,12.50
2019,10,22,13,58,12.40
2019,10,22,13,59,12.40
2019,10,22,14,00,12.40
2019,10,22,14,01,12.40
2019,10,22,14,02,12.30
2019,10,22,14,03,12.30
2019,10,22,14,04,12.20
2019,10,22,14,05,12.20
2019,10,22,14,06,12.30
2019,10,22,14,07,12.20
2019,10,22,14,08,12.20
2019,10,22,14,09,12.20
2019,10,22,14,10,12.20
2019,10,22,14,11,12.20
2019,10,22,14,12,12.20
2019,10,22,14,13,12.20
2019,10,22,14,14,12.20
2019,10,22,14,15,12.20
2019,10,22,14,16,12.20
2019,10,22,14,17,12.20
2019,10,22,14,18,12.20
2019,10,22,14,19,12.20
2019,10,22,14,20,12.20
2019,10,22,14,21,12.20
2019,10,22,14,22,12.20
2019,10,22,14,23,12.20
2019,10,22,14,24,12.20
2019,10,22,14,25,12.20
2019,10,22,14,26,12.20
2019,10,22,14,27,12.20
2019,10,22,14,28,12.30
2019,10,22,14,29,12.30
2019,10,22,14,30,12.30
2019,10,22,14,31,12.30
2019,10,22,14,32,12.30
2019,10,22,14,33,12.30
2019,10,22,14,34,12.30
2019,10,22,14,35,12.30
2019,10,22,14,36,12.30
2019,10,22,14,37,12.30
2019,10,22,14,38,12.40
2019,10,22,14,39,12.40
2019,10,22,14,40,12.40
2019,10,22,14,41,12.40
2019,10,22,14,42,12.40
2019,10,22,14,43,12.40
2019,10,22,14,44,12.40
2019,10,22,14,45,12.40
2019,10,22,14,46,12.40
2019,10,22,14,47,12.40
2019,10,22,14,48,12.40
2019,10,22,14,49,12.50
2019,10,22,14,50,12.50
2019,10,22,14,51,12.50
2019,10,22,14,52,12.60
2019,10,22,14,53,12.60
2019,10,22,14,54,12.60
2019,10,22,14,55,12.60
2019,10,22,14,56,12.60
2019,10,22,14,57,12.60
2019,10,22,14,58,12.60
2019,10,22,14,59,12.60
2019,10,22,15,00,12.50
2019,10,22,15,01,12.50
2019,10,22,15,02,12.50
2019,10,22,15,03,12.60
2019,10,22,15,04,12.60
2019,10,22,15,05,12.60
2019,10,22,15,06,12.70
2019,10,22,15,07,12.60
2019,10,22,15,08,12.60
2019,10,22,15,09,12.60
2019,10,22,15,10,12.60
2019,10,22,15,11,12.60
2019,10,22,15,12,12.60
2019,10,22,15,13,12.70
2019,10,22,15,14,12.70
2019,10,22,15,15,12.70
2019,10,22,15,16,12.70
2019,10,22,15,17,12.70
2019,10,22,15,18,12.80
2019,10,22,15,19,12.80
2019,10,22,15,20,12.80
2019,10,22,15,21,12.80
2019,10,22,15,22,12.80
2019,10,22,15,23,12.80
2019,10,22,15,24,12.90
2019,10,22,15,25,12.80
2019,10,22,15,26,12.80
2019,10,22,15,27,12.80
2019,10,22,15,28,12.80
2019,10,22,15,29,12.80
2019,10,22,15,30,12.80
2019,10,22,15,31,12.80
2019,10,22,15,32,12.80
2019,10,22,15,33,12.80
2019,10,22,15,34,12.80
2019,10,22,15,35,12.80
2019,10,22,15,36,12.80
2019,10,22,15,37,12.80
2019,10,22,15,38,12.80
2019,10,22,15,39,12.80
2019,10,22,15,40,12.80
2019,10,22,15,41,12.80
2019,10,22,15,42,12.90
2019,10,22,15,43,12.90
2019,10,22,15,44,12.90
2019,10,22,15,45,12.80
2019,10,22,15,46,12.80
2019,10,22,15,47,12.80
2019,10,22,15,48,12.80
2019,10,22,15,49,12.80
2019,10,22,15,50,12.80
2019,10,22,15,51,12.80
2019,10,22,15,52,12.80
2019,10,22,15,53,12.70
2019,10,22,15,54,12.70
2019,10,22,15,55,12.70
2019,10,22,15,56,12.70
2019,10,22,15,57,12.60
2019,10,22,15,58,12.60
2019,10,22,15,59,12.60
2019,10,22,16,00,12.60
2019,10,22,16,01,12.60
2019,10,22,16,02,12.50
2019,10,22,16,03,12.50
2019,10,22,16,04,12.50
2019,10,22,16,05,12.50
2019,10,22,16,06,12.50
2019,10,22,16,07,12.50
2019,10,22,16,08,12.50
2019,10,22,16,09,12.50
2019,10,22,16,10,12.50
2019,10,22,16,11,12.50
2019,10,22,16,12,12.50
2019,10,22,16,13,12.50
2019,10,22,16,14,12.40
2019,10,22,16,15,12.40
2019,10,22,16,16,12.40
2019,10,22,16,17,12.40
2019,10,22,16,18,12.40
2019,10,22,16,19,12.40
2019,10,22,16,20,12.40
2019,10,22,16,21,12.40
2019,10,22,16,22,12.40
2019,10,22,16,23,12.40
2019,10,22,16,24,12.40
2019,10,22,16,25,12.40
2019,10,22,16,26,12.30
2019,10,22,16,27,12.30
2019,10,22,16,28,12.30
2019,10,22,16,29,12.30
2019,10,22,16,30,12.30
2019,10,22,16,31,12.30
2019,10,22,16,32,12.30
2019,10,22,16,33,12.30
2019,10,22,16,34,12.30
2019,10,22,16,35,12.30
2019,10,22,16,36,12.30
2019,10,22,16,37,12.20
2019,10,22,16,38,12.30
2019,10,22,16,39,12.30
2019,10,22,16,40,12.30
2019,10,22,16,41,12.20
2019,10,22,16,42,12.30
2019,10,22,16,43,12.20
2019,10,22,16,44,12.20
2019,10,22,16,45,12.20
2019,10,22,16,46,12.20
2019,10,22,16,47,12.20
2019,10,22,16,48,12.20
2019,10,22,16,49,12.20
2019,10,22,16,50,12.30
2019,10,22,16,51,12.20
2019,10,22,16,52,12.20
2019,10,22,16,53,12.20
2019,10,22,16,54,12.20
2019,10,22,16,55,12.20
2019,10,22,16,56,12.20
2019,10,22,16,57,12.20
2019,10,22,16,58,12.20
2019,10,22,16,59,12.20
2019,10,22,17,00,12.10
2019,10,22,17,01,12.10
2019,10,22,17,02,12.10
2019,10,22,17,03,12.10
2019,10,22,17,04,12.10
2019,10,22,17,05,12.10
2019,10,22,17,06,12.10
2019,10,22,17,07,12.10
2019,10,22,17,08,12.00
2019,10,22,17,09,12.00
2019,10,22,17,10,12.00
2019,10,22,17,11,12.10
2019,10,22,17,12,12.10
2019,10,22,17,13,12.10
2019,10,22,17,14,12.10
2019,10,22,17,15,12.10
2019,10,22,17,16,12.20
2019,10,22,17,17,12.20
2019,10,22,17,18,12.20
2019,10,22,17,19,12.20
2019,10,22,17,20,12.30
2019,10,22,17,21,12.30
2019,10,22,17,22,12.30
2019,10,22,17,23,12.30
2019,10,22,17,24,12.30
2019,10,22,17,25,12.40
2019,10,22,17,26,12.40
2019,10,22,17,27,12.40
2019,10,22,17,28,12.40
2019,10,22,17,29,12.40
2019,10,22,17,30,12.40
2019,10,22,17,31,12.40
2019,10,22,17,32,12.40
2019,10,22,17,33,12.40
2019,10,22,17,34,12.40
2019,10,22,17,35,12.40
2019,10,22,17,36,12.40
2019,10,22,17,37,12.40
2019,10,22,17,38,12.40
2019,10,22,17,39,12.40
2019,10,22,17,40,12.40
2019,10,22,17,41,12.30
2019,10,22,17,42,12.30
2019,10,22,17,43,12.30
2019,10,22,17,44,12.30
2019,10,22,17,45,12.30
2019,10,22,17,46,12.30
2019,10,22,17,47,12.30
2019,10,22,17,48,12.30
2019,10,22,17,49,12.30
2019,10,22,17,50,12.30
2019,10,22,17,51,12.30
2019,10,22,17,52,12.30
2019,10,22,17,53,12.30
2019,10,22,17,54,12.30
2019,10,22,17,55,12.30
2019,10,22,17,56,12.30
2019,10,22,17,57,12.30
2019,10,22,17,58,12.30
2019,10,22,17,59,12.30
2019,10,22,18,00,12.30
2019,10,22,18,01,12.30
2019,10,22,18,02,12.30
2019,10,22,18,03,12.30
2019,10,22,18,04,12.30
2019,10,22,18,05,12.30
2019,10,22,18,06,12.30
2019,10,22,18,07,12.30
2019,10,22,18,08,12.30
2019,10,22,18,09,12.20
2019,10,22,18,10,12.20
2019,10,22,18,11,12.20
2019,10,22,18,12,12.20
2019,10,22,18,13,12.20
2019,10,22,18,14,12.20
2019,10,22,18,15,12.20
2019,10,22,18,16,12.20
2019,10,22,18,17,12.20
2019,10,22,18,18,12.20
2019,10,22,18,19,12.10
2019,10,22,18,20,12.10